Location: Newark
(39.6867°N, 100.6772°W)
Time: 20:20:22
(UTC+00:00)

S-56A Canister/Altair - Visible Passes

Search period start: 21 October 2019 00:00
Search period end: 31 October 2019 00:00
Orbit: 633 x 2499 km, 38.9° (Epoch: 20 October)

Date Brightness Start Highest point End Pass type
(mag) Time Alt. Az. Time Alt. Az. Time Alt. Az.
21 Oct 9.1 09:34:14 47° E 09:34:14 47° E 09:40:53 10° E visible
21 Oct 8.8 11:31:40 25° W 11:36:38 85° S 11:48:05 10° E visible
22 Oct 9.9 09:03:23 28° E 09:03:23 28° E 09:07:23 10° E visible
22 Oct 8.6 11:00:48 43° W 11:03:39 86° S 11:14:20 10° E visible
23 Oct 10.6 08:32:31 15° E 08:32:31 15° E 08:33:59 10° E visible
23 Oct 8.2 10:29:58 74° WSW 10:30:46 86° S 10:40:39 10° E visible
23 Oct 9.2 12:27:45 10° W 12:35:39 68° SSW 12:47:42 10° ESE visible
24 Oct 8.5 09:59:07 66° E 09:59:07 66° E 10:07:03 10° E visible
24 Oct 9.0 11:56:32 17° W 12:02:38 71° SSW 12:14:01 10° ESE visible
25 Oct 9.4 09:28:16 38° E 09:28:16 38° E 09:33:32 10° E visible
25 Oct 8.7 11:25:42 30° W 11:29:40 74° SSW 11:40:21 10° ESE visible
26 Oct 10.2 08:57:27 21° E 08:57:27 21° E 09:00:07 10° E visible
26 Oct 8.3 10:54:53 53° W 10:56:48 76° SSW 11:06:43 10° ESE visible
27 Oct 10.9 08:26:39 11° E 08:26:39 11° E 08:26:48 10° E visible
27 Oct 8.2 10:24:05 78° S 10:24:05 78° S 10:33:09 10° ESE visible
27 Oct 9.4 12:21:31 11° W 12:28:30 46° SSW 12:39:01 10° SE visible
28 Oct 8.9 09:53:18 49° ESE 09:53:18 49° ESE 09:59:39 10° ESE visible
28 Oct 9.1 11:50:44 21° W 11:55:34 48° SSW 12:05:34 10° SE visible
29 Oct 9.8 09:22:34 28° E 09:22:34 28° E 09:26:15 10° E visible
29 Oct 8.8 11:19:59 35° WSW 11:22:42 51° SSW 11:32:08 10° SE visible
30 Oct 10.6 08:51:50 14° E 08:51:50 14° E 08:52:55 10° E visible
30 Oct 8.4 10:49:16 52° SW 10:49:53 54° SSW 10:58:43 10° SE visible
